COSMOS 2550 (48865 NORAD) Tracking and Keplerian Element Data

This shows tracking and keplerian element data for the satellite.

Feedback or suggestion? Click here.




ElementValue
Catalog48865
NameCOSMOS 2550
Epoch Orbit1708
Epoch Day288.08486159
Epoch Year2021
RAAN221.2259
Inclination67.1429
Eccentricity0.0008161
Argument of Perigee264.6778
Mean Anonmoly212.4217
Mean Motion15.33855609
Decay Rate2.496E-05
L11 48865U 21056A 21288.08486159 .00002496 00000-0 81609-4 0 9996
L22 48865 67.1429 221.2259 0008161 264.6778 212.4217 15.33855609 17081

Live tracking and technical data element details for COSMOS 2550 (NORAD 48865). COSMOS 2550 can be tracked NOW for your location showing map with azimuth and elevation plus other details from your city location.

Track the satellite on the map from your city or location and see movement details for azimuth, elevation, latitude, longitude, range, height, and movement on the map or in text.







IsCatalogInMostPopularTable: catalog: 48865, numindb: 26
Update: records affected: 1



GetName: 48865 COSMOS 2550

Hit Count: updated at: Tue, 19 Oct 2021 08:42:26 GMT